TimeEST,TemperatureF,Dew PointF,Humidity,Sea Level PressureIn,VisibilityMPH,Wind Direction,Wind SpeedMPH,Gust SpeedMPH,PrecipitationIn,Events,Conditions,WindDirDegrees,DateUTC
12:55 AM,46.2,37.6,72,30.18,10.0,Calm,Calm,-,N/A,,Overcast,0,2012-11-20 05:55:00
1:55 AM,45.5,36.7,71,30.16,10.0,Calm,Calm,-,N/A,,Overcast,0,2012-11-20 06:55:00
2:55 AM,47.5,36.3,65,30.16,10.0,Calm,Calm,-,N/A,,Overcast,0,2012-11-20 07:55:00
3:55 AM,46.8,37.2,69,30.15,10.0,Calm,Calm,-,N/A,,Overcast,0,2012-11-20 08:55:00
4:55 AM,45.9,37.9,74,30.15,10.0,East,3.5,-,N/A,,Overcast,90,2012-11-20 09:55:00
5:55 AM,45.9,34.7,65,30.14,10.0,Calm,Calm,-,N/A,,Overcast,0,2012-11-20 10:55:00
6:55 AM,42.1,33.1,70,30.14,10.0,Calm,Calm,-,N/A,,Mostly Cloudy,0,2012-11-20 11:55:00
7:55 AM,40.3,34.2,79,30.15,10.0,Calm,Calm,-,N/A,,Scattered Clouds,0,2012-11-20 12:55:00
8:55 AM,47.7,37.6,68,30.15,10.0,Calm,Calm,-,N/A,,Mostly Cloudy,0,2012-11-20 13:55:00
9:55 AM,54.0,37.0,53,30.15,10.0,SSW,4.6,-,N/A,,Mostly Cloudy,200,2012-11-20 14:55:00
10:55 AM,59.0,38.3,46,30.14,10.0,South,4.6,-,0.00,,Mostly Cloudy,180,2012-11-20 15:55:00
11:55 AM,60.8,40.3,47,30.12,10.0,Variable,4.6,-,N/A,,Overcast,0,2012-11-20 16:55:00
12:55 PM,61.7,40.5,46,30.09,10.0,Variable,3.5,-,N/A,,Mostly Cloudy,0,2012-11-20 17:55:00
1:55 PM,64.8,39.9,40,30.07,10.0,SW,5.8,-,0.00,,Overcast,220,2012-11-20 18:55:00
2:55 PM,64.0,40.6,42,30.06,10.0,SW,5.8,-,N/A,,Mostly Cloudy,220,2012-11-20 19:55:00
3:55 PM,63.1,42.8,47,30.05,10.0,South,3.5,-,N/A,,Mostly Cloudy,190,2012-11-20 20:55:00
4:55 PM,62.1,42.1,48,30.05,10.0,South,1.2,-,N/A,,Mostly Cloudy,180,2012-11-20 21:55:00
5:55 PM,60.1,43.0,53,30.06,10.0,Calm,Calm,-,N/A,,Overcast,0,2012-11-20 22:55:00
6:55 PM,57.4,43.9,61,30.08,10.0,WNW,2.3,-,N/A,,Overcast,290,2012-11-20 23:55:00
7:55 PM,55.6,44.1,65,30.10,10.0,WNW,4.6,-,N/A,,Overcast,300,2012-11-21 00:55:00
8:55 PM,57.7,43.7,60,30.10,10.0,NW,4.6,-,N/A,,Overcast,320,2012-11-21 01:55:00
9:55 PM,57.0,44.2,62,30.11,10.0,NW,5.8,-,N/A,,Overcast,320,2012-11-21 02:55:00
10:55 PM,56.1,43.0,61,30.12,10.0,NW,9.2,-,N/A,,Overcast,320,2012-11-21 03:55:00
11:55 PM,53.2,43.0,68,30.12,10.0,NNW,5.8,-,N/A,,Scattered Clouds,330,2012-11-21 04:55:00